EAG1250 SBCT-SBSP

Flight info

Callsign EAG1250
Flight time 0h 36m
Altitude 29000
Route EDVEB UM548 DOSMU DCT ANISE
Aircraft B38M/M-SDE1FGHILORVWXY/HB1

Departure

Time 2026-05-04 10:51
Airport Curitiba-Afonso Pena International Airport (SBCT)

Arrival

Time 2026-05-04 11:27
Airport Congonhas–Deputado Freitas Nobre Airport (SBSP)
Time Latitude Longitude Altitude Speed Heading
2026-05-04 10:42 -25.53432 -49.17398 2996 ft 0 kts 225°
2026-05-04 10:44 -25.53420 -49.17355 2996 ft 0 kts 164°
2026-05-04 10:46 -25.53425 -49.17340 2996 ft 6 kts 89°
2026-05-04 10:47 -25.53397 -49.17276 2994 ft 12 kts 45°
2026-05-04 10:47 -25.53331 -49.17262 2995 ft 10 kts 325°
2026-05-04 10:47 -25.53274 -49.17324 2996 ft 15 kts 314°
2026-05-04 10:47 -25.53183 -49.17427 2995 ft 21 kts 315°
2026-05-04 10:49 -25.52492 -49.17975 2995 ft 5 kts 124°
2026-05-04 10:49 -25.52607 -49.17846 2991 ft 62 kts 134°
2026-05-04 10:50 -25.53101 -49.17294 2995 ft 137 kts 135°
2026-05-04 10:51 -25.54857 -49.06306 7521 ft 273 kts 83°
2026-05-04 10:52 -25.54731 -49.04887 7979 ft 285 kts 83°
2026-05-04 10:52 -25.54531 -49.02645 8805 ft 294 kts 83°
2026-05-04 10:52 -25.54256 -48.99628 10100 ft 302 kts 83°
2026-05-04 10:54 -25.51141 -48.81834 13943 ft 392 kts 76°
2026-05-04 10:54 -25.50498 -48.78880 14585 ft 397 kts 76°
2026-05-04 10:56 -25.45795 -48.57255 18869 ft 429 kts 77°
2026-05-04 10:56 -25.45092 -48.54032 19385 ft 432 kts 77°
2026-05-04 10:56 -25.44376 -48.50792 19905 ft 435 kts 77°
2026-05-04 10:57 -25.43647 -48.47515 20413 ft 439 kts 77°
2026-05-04 10:57 -25.42913 -48.44219 20928 ft 442 kts 77°
2026-05-04 10:57 -25.42173 -48.40897 21428 ft 446 kts 77°
2026-05-04 10:57 -25.41424 -48.37542 21928 ft 450 kts 77°
2026-05-04 10:58 -25.40674 -48.34181 22419 ft 453 kts 77°
2026-05-04 10:58 -25.39925 -48.30830 22904 ft 457 kts 77°
2026-05-04 10:58 -25.39158 -48.27404 23394 ft 460 kts 77°
2026-05-04 10:58 -25.38385 -48.23955 23852 ft 463 kts 77°
2026-05-04 10:59 -25.37604 -48.20476 24250 ft 467 kts 77°
2026-05-04 10:59 -25.36814 -48.16957 24634 ft 471 kts 77°
2026-05-04 10:59 -25.36031 -48.13474 25034 ft 474 kts 77°
2026-05-04 10:59 -25.35232 -48.09928 25426 ft 477 kts 77°
2026-05-04 11:00 -25.34425 -48.06347 25816 ft 480 kts 77°
2026-05-04 11:01 -25.29428 -47.80618 28368 ft 500 kts 81°
2026-05-04 11:02 -25.28748 -47.76829 28709 ft 503 kts 81°
2026-05-04 11:02 -25.28063 -47.73020 29038 ft 507 kts 81°
2026-05-04 11:05 -25.06763 -47.23686 29180 ft 527 kts 49°
2026-05-04 11:06 -25.02054 -47.17463 29179 ft 527 kts 49°
2026-05-04 11:06 -24.97375 -47.11288 29185 ft 526 kts 49°
2026-05-04 11:08 -24.80918 -46.89634 28956 ft 526 kts 47°
2026-05-04 11:10 -24.64589 -46.68281 23301 ft 509 kts 44°
2026-05-04 11:12 -24.43072 -46.62581 19744 ft 451 kts 356°
2026-05-04 11:12 -24.39934 -46.62572 19252 ft 448 kts 356°
2026-05-04 11:12 -24.36839 -46.62568 18775 ft 444 kts 356°
2026-05-04 11:12 -24.33750 -46.62567 18298 ft 442 kts 356°
2026-05-04 11:13 -24.30686 -46.62568 17796 ft 439 kts 356°
2026-05-04 11:13 -24.27634 -46.62570 17328 ft 436 kts 356°
2026-05-04 11:13 -24.24641 -46.62572 16865 ft 430 kts 356°
2026-05-04 11:13 -24.21678 -46.62573 16332 ft 424 kts 356°
2026-05-04 11:14 -24.18735 -46.62575 15913 ft 417 kts 356°
2026-05-04 11:14 -24.15888 -46.62577 15498 ft 411 kts 356°
2026-05-04 11:14 -24.13075 -46.62578 15089 ft 397 kts 356°
2026-05-04 11:16 -23.96007 -46.62589 12432 ft 319 kts 357°
2026-05-04 11:16 -23.93786 -46.62591 12089 ft 318 kts 357°
2026-05-04 11:16 -23.91579 -46.62592 11746 ft 316 kts 357°
2026-05-04 11:17 -23.89407 -46.62593 11454 ft 315 kts 357°
2026-05-04 11:17 -23.87229 -46.62597 11125 ft 313 kts 356°
2026-05-04 11:19 -23.74688 -46.70210 9300 ft 276 kts 325°
2026-05-04 11:19 -23.73064 -46.71337 9072 ft 277 kts 326°
2026-05-04 11:19 -23.71432 -46.72468 8672 ft 280 kts 326°
2026-05-04 11:19 -23.69803 -46.73598 8403 ft 270 kts 326°
2026-05-04 11:20 -23.68272 -46.74659 8164 ft 258 kts 326°
2026-05-04 11:20 -23.66790 -46.75686 7920 ft 247 kts 326°
2026-05-04 11:20 -23.65362 -46.76676 7681 ft 237 kts 326°
2026-05-04 11:20 -23.64002 -46.77618 7489 ft 227 kts 326°
2026-05-04 11:22 -23.54698 -46.79589 5959 ft 218 kts 54°
2026-05-04 11:22 -23.53893 -46.78250 5745 ft 210 kts 54°
2026-05-04 11:23 -23.53116 -46.76948 5520 ft 199 kts 54°
2026-05-04 11:23 -23.52380 -46.75704 5268 ft 189 kts 56°
2026-05-04 11:24 -23.56442 -46.69938 3903 ft 158 kts 145°
2026-05-04 11:25 -23.57358 -46.69306 3729 ft 154 kts 144°
2026-05-04 11:25 -23.58259 -46.68685 3514 ft 151 kts 144°
2026-05-04 11:25 -23.59136 -46.68080 3301 ft 152 kts 144°
2026-05-04 11:26 -23.60979 -46.66823 2837 ft 154 kts 144°
2026-05-04 11:27 -23.63169 -46.65442 2605 ft 17 kts 327°
2026-05-04 11:28 -23.63065 -46.65511 2605 ft 18 kts 341°
2026-05-04 11:28 -23.62947 -46.65560 2606 ft 19 kts 326°
2026-05-04 11:28 -23.62833 -46.65640 2605 ft 20 kts 328°
2026-05-04 11:28 -23.62708 -46.65726 2605 ft 22 kts 327°
2026-05-04 11:29 -23.62584 -46.65811 2604 ft 22 kts 327°
2026-05-04 11:29 -23.62451 -46.65904 2603 ft 23 kts 327°
2026-05-04 11:29 -23.62348 -46.65976 2603 ft 12 kts 317°
2026-05-04 11:29 -23.62347 -46.66002 2603 ft 2 kts 219°
2026-05-04 11:31 -23.62388 -46.66047 2603 ft 0 kts 230°